Find Starlink 31443

NORAD ID: 59393 Int'l Des: 2024-062 Owner: SPXS Country: US Constellation: starlink operational
LEOCIRCULAR

当前视图

正在加载3D地球...

About Starlink 31443

Starlink 31443 (NORAD 59393) is a starlink constellation satellite (v2 mini) launched Apr 2, 2024 by SPXS of US. It operates in LEO, CIRCULAR orbit with a mass of 730.00 kg.

即将过境

Passes for default location (London). Set your location on the main map for personalized predictions.

高度历史

Loading altitude history...

两行轨道根数

1 59393U 24062V 26252.80954676 .00000282 00000-0 19490-4 0 9994
2 59393 53.1579 103.7514 0001159 85.5001 274.6134 15.34388096138092
Epoch: Sep 9, 2026 • Age: 11 hours

当前状态

高度 467.0 km
远地点 / 近地点 N/A
速度 7.64 km/s
星下点 46.25°N, 137.98°E
发射日期 Apr 2, 2024
运行时间 2.4 years
类型 internet

技术详情

分类 Payload
质量 730.00 kg
干质量 700.00 kg
总质量 730.00 kg
长度 0.30 m
直径 4.10 m
跨度 29.00 m
形状 Box + pan
制造商 SPXS
平台类型 Starlink V2M
阶段状态 In Orbit
所有者/国家 SPXS/US

Most Searched